Marianna, FL

5:54 AM CST on February 20, 2017 (GMT -0600)
Marianna Municipal

Weather History for KMAI - November, 2013

Change the Weather History Date:

Tuesday, November 5, 2013

  Actual Average Record
Temperature  
Mean Temperature 62 °F 63 °F  
Max Temperature 73 °F 75 °F 86 °F (2015)
Min Temperature 51 °F 51 °F 37 °F (1999)
Degree Days  
Heating Degree Days 3    
Month to date heating degree days 16  
Since 1 July heating degree days 50  
Cooling Degree Days 0    
Month to date cooling degree days 6  
Year to date cooling degree days 2473  
Growing Degree Days 12 (Base 50)    
Moisture  
Dew Point 48 °F    
Average Humidity 62    
Maximum Humidity 77    
Minimum Humidity 47    
Precipitation  
Precipitation 0.00 in 0.10 in 1.01 in (2003)
Month to date precipitation 1.04 0.55  
Year to date precipitation 55.99 46.10  
Sea Level Pressure  
Sea Level Pressure 30.25 in    
Wind  
Wind Speed 10 mph (ENE)    
Max Wind Speed 21 mph    
Max Gust Speed 25 mph    
Visibility 10 miles    
Events      
T = Trace of Precipitation, MM = Missing Value Source: NWS Daily Summary

Daily Weather History Graph

Daily Weather History Graph

Search for Another Location

Airport or City:

Trip Planner

Search our weather history database for the weather conditions in past years. The results will help you decide how hot, cold, wet, or windy it might be!

Date:

Astronomy

Nov. 05, 2013 Rise Set
Actual Time 5:59 AM CST 4:49 PM CST
Civil Twilight 5:34 AM CST 5:14 PM CST
Nautical Twilight 5:05 AM CST 5:42 PM CST
Astronomical Twilight 4:36 AM CST 6:11 PM CST
Moon 8:07 AM CST (11/5) 6:55 PM CST (11/5)
Length of Visible Light 11h 40m
Length of Day
10h 49m
Waxing Crescent, 7% of the Moon is Illuminated
Nov 5
Waxing Crescent
Nov 9
First Quarter
Nov 17
Full
Nov 25
Last Quarter
Dec 2
New

Hourly Weather History & Observations

Time (CST) Temp. Dew Point Humidity Pressure Visibility Wind Dir Wind Speed Gust Speed Precip Events Conditions
12:53 AM 55.0 °F 42.1 °F 62% 30.27 in 10.0 mi NE 10.4 mph - N/A   Clear
1:53 AM 53.1 °F 41.0 °F 64% 30.27 in 10.0 mi NE 6.9 mph - N/A   Clear
2:53 AM 52.0 °F 41.0 °F 66% 30.27 in 10.0 mi NNE 5.8 mph - N/A   Clear
3:53 AM 51.1 °F 41.0 °F 68% 30.27 in 10.0 mi NNE 4.6 mph - N/A   Clear
4:53 AM 52.0 °F 42.1 °F 69% 30.28 in 10.0 mi North 4.6 mph - N/A   Overcast
5:53 AM 51.1 °F 44.1 °F 77% 30.29 in 10.0 mi ENE 6.9 mph - N/A   Clear
6:53 AM 55.9 °F 44.1 °F 64% 30.30 in 10.0 mi ENE 11.5 mph - N/A   Clear
7:53 AM 60.1 °F 46.9 °F 62% 30.31 in 10.0 mi ENE 17.3 mph 23.0 mph N/A   Clear
8:53 AM 63.0 °F 48.0 °F 58% 30.31 in 10.0 mi ENE 19.6 mph 23.0 mph N/A   Clear
9:53 AM 66.0 °F 46.9 °F 50% 30.31 in 10.0 mi East 15.0 mph 21.9 mph N/A   Clear
10:53 AM 69.1 °F 48.9 °F 49% 30.29 in 10.0 mi ENE 18.4 mph 21.9 mph N/A   Clear
11:53 AM 71.1 °F 50.0 °F 47% 30.26 in 10.0 mi ENE 15.0 mph 24.2 mph N/A   Clear
12:53 PM 72.0 °F 53.1 °F 51% 30.23 in 10.0 mi ENE 19.6 mph - N/A   Scattered Clouds
1:53 PM 71.1 °F 53.1 °F 53% 30.22 in 10.0 mi East 13.8 mph 23.0 mph N/A   Clear
2:53 PM 71.1 °F 52.0 °F 51% 30.21 in 10.0 mi East 11.5 mph 21.9 mph N/A   Clear
3:53 PM 69.1 °F 50.0 °F 51% 30.22 in 10.0 mi ENE 12.7 mph 20.7 mph N/A   Clear
4:53 PM 66.0 °F 51.1 °F 59% 30.22 in 10.0 mi ENE 8.1 mph - N/A   Clear
5:53 PM 62.1 °F 51.1 °F 67% 30.22 in 10.0 mi ENE 4.6 mph - N/A   Partly Cloudy
6:53 PM 64.9 °F 52.0 °F 63% 30.23 in 10.0 mi ENE 6.9 mph - N/A   Overcast
7:53 PM 61.0 °F 51.1 °F 70% 30.24 in 10.0 mi ENE 5.8 mph - N/A   Scattered Clouds
8:53 PM 63.0 °F 48.9 °F 60% 30.24 in 10.0 mi ENE 8.1 mph - N/A   Overcast
9:53 PM 64.0 °F 50.0 °F 60% 30.23 in 10.0 mi East 8.1 mph - N/A   Overcast
10:53 PM 62.1 °F 50.0 °F 65% 30.22 in 10.0 mi ENE 5.8 mph - N/A   Mostly Cloudy
11:53 PM 57.9 °F 50.0 °F 75% 30.21 in 10.0 mi ENE 4.6 mph - N/A   Scattered Clouds